,,,PA_Meas_PMT16A,,PR_Meas_QMR101_102,,RH_Meas_QMH101,,SR_Meas_QMS101,,TA_Meas_QMH101,,GenWind,,GenWind,
date,time,status,PA,status,PR,status,RH,status,SR,status,TA,status,DirAvg,status,SpdAvg,
2010-04-20, 00:00:05,VALID,1000.9,VALID,0,VALID,92.616,VALID,0,VALID,23.8768,VALID,82,VALID,0,
2010-04-20, 00:01:05,VALID,1000.89,VALID,0,VALID,92.6541,VALID,0,VALID,23.8555,VALID,73,VALID,0,
2010-04-20, 00:02:05,VALID,1000.86,VALID,0,VALID,92.6312,VALID,0,VALID,23.8768,VALID,73,VALID,0,
2010-04-20, 00:03:05,VALID,1000.83,VALID,0,VALID,92.5854,VALID,0,VALID,23.8768,VALID,73,VALID,0,
2010-04-20, 00:04:05,VALID,1000.86,VALID,0,VALID,92.4634,VALID,0,VALID,23.8165,VALID,73,VALID,0,
2010-04-20, 00:05:05,VALID,1000.85,VALID,0,VALID,92.3108,VALID,0,VALID,23.7793,VALID,51,VALID,0,
2010-04-20, 00:06:05,VALID,1000.85,VALID,0,VALID,92.4481,VALID,0,VALID,23.7597,VALID,50,VALID,0,
2010-04-20, 00:07:05,VALID,1000.85,VALID,0,VALID,92.5931,VALID,0,VALID,23.7793,VALID,50,VALID,0,
2010-04-20, 00:08:05,VALID,1000.84,VALID,0,VALID,92.5854,VALID,0,VALID,23.7597,VALID,50,VALID,0,
2010-04-20, 00:09:05,VALID,1000.82,VALID,0,VALID,92.4863,VALID,0,VALID,23.7207,VALID,50,VALID,0,
2010-04-20, 00:10:05,VALID,1000.83,VALID,0,VALID,92.5168,VALID,0,VALID,23.7012,VALID,50,VALID,0,
2010-04-20, 00:11:05,VALID,1000.81,VALID,0,VALID,92.5778,VALID,0,VALID,23.7012,VALID,50,VALID,0,
2010-04-20, 00:12:05,VALID,1000.83,VALID,0,VALID,92.7609,VALID,0,VALID,23.7225,VALID,50,VALID,0,
2010-04-20, 00:13:05,VALID,1000.83,VALID,0,VALID,92.8677,VALID,0,VALID,23.7402,VALID,50,VALID,0,
2010-04-20, 00:14:05,VALID,1000.82,VALID,0,VALID,92.9593,VALID,0,VALID,23.7988,VALID,65,VALID,0,
2010-04-20, 00:15:05,VALID,1000.82,VALID,0,VALID,92.9669,VALID,0,VALID,23.8183,VALID,160,VALID,0,
2010-04-20, 00:16:05,VALID,1000.82,VALID,0,VALID,93.0203,VALID,0,VALID,23.8573,VALID,162,VALID,0,
2010-04-20, 00:17:05,VALID,1000.81,VALID,0,VALID,92.9822,VALID,0.112286,VALID,23.875,VALID,169,VALID,0,
2010-04-20, 00:18:05,VALID,1000.8,VALID,0,VALID,92.9059,VALID,0,VALID,23.8945,VALID,172,VALID,0,
2010-04-20, 00:19:05,VALID,1000.81,VALID,0,VALID,92.8296,VALID,0.112286,VALID,23.875,VALID,172,VALID,0,
2010-04-20, 00:20:05,VALID,1000.77,VALID,0,VALID,92.7533,VALID,0.112286,VALID,23.875,VALID,179,VALID,0,
2010-04-20, 00:21:05,VALID,1000.77,VALID,0,VALID,92.738,VALID,0.112286,VALID,23.914,VALID,182,VALID,0,
2010-04-20, 00:22:05,VALID,1000.76,VALID,0,VALID,92.6312,VALID,0.112286,VALID,23.9531,VALID,180,VALID,0,
2010-04-20, 00:23:05,VALID,1000.73,VALID,0,VALID,92.4328,VALID,0,VALID,23.9336,VALID,178,VALID,0,
2010-04-20, 00:24:05,VALID,1000.74,VALID,0,VALID,92.2574,VALID,0,VALID,23.9336,VALID,178,VALID,0,
2010-04-20, 00:25:05,VALID,1000.74,VALID,0,VALID,92.1582,VALID,0.112286,VALID,23.9531,VALID,178,VALID,0,
2010-04-20, 00:26:05,VALID,1000.74,VALID,0,VALID,92.0285,VALID,0.112286,VALID,23.9531,VALID,178,VALID,0,
2010-04-20, 00:27:05,VALID,1000.76,VALID,0,VALID,91.914,VALID,0,VALID,23.9354,VALID,178,VALID,0,
2010-04-20, 00:28:05,VALID,1000.77,VALID,0,VALID,91.8377,VALID,0,VALID,23.8945,VALID,243,VALID,0,
2010-04-20, 00:29:05,VALID,1000.78,VALID,0,VALID,91.8988,VALID,0,VALID,23.8945,VALID,243,VALID,0,
2010-04-20, 00:30:05,VALID,1000.75,VALID,0,VALID,91.9217,VALID,0,VALID,23.836,VALID,243,VALID,0,
2010-04-20, 00:31:05,VALID,1000.75,VALID,0,VALID,92.0285,VALID,0,VALID,23.8378,VALID,243,VALID,0,
2010-04-20, 00:32:05,VALID,1000.74,VALID,0,VALID,92.0895,VALID,0,VALID,23.7988,VALID,243,VALID,0,
2010-04-20, 00:33:05,VALID,1000.74,VALID,0,VALID,92.1811,VALID,0,VALID,23.7793,VALID,243,VALID,0,
2010-04-20, 00:34:05,VALID,1000.74,VALID,0,VALID,92.2421,VALID,0,VALID,23.7597,VALID,243,VALID,0,
2010-04-20, 00:35:05,VALID,1000.73,VALID,0,VALID,92.3413,VALID,0,VALID,23.7402,VALID,243,VALID,0,
2010-04-20, 00:36:05,VALID,1000.75,VALID,0,VALID,92.4328,VALID,0,VALID,23.7384,VALID,243,VALID,0,
2010-04-20, 00:37:05,VALID,1000.72,VALID,0,VALID,92.4863,VALID,0,VALID,23.7189,VALID,243,VALID,0,
2010-04-20, 00:38:05,VALID,1000.72,VALID,0,VALID,92.4252,VALID,0,VALID,23.7207,VALID,243,VALID,0,
2010-04-20, 00:39:05,VALID,1000.73,VALID,0,VALID,92.3871,VALID,0,VALID,23.6622,VALID,243,VALID,0,
2010-04-20, 00:40:05,VALID,1000.71,VALID,0,VALID,92.4863,VALID,0,VALID,23.6622,VALID,243,VALID,0,
2010-04-20, 00:41:05,VALID,1000.69,VALID,0,VALID,92.6465,VALID,0,VALID,23.6799,VALID,243,VALID,0,
2010-04-20, 00:42:05,VALID,1000.65,VALID,0,VALID,92.7228,VALID,0,VALID,23.7012,VALID,243,VALID,0,
2010-04-20, 00:43:05,VALID,1000.65,VALID,0,VALID,92.7304,VALID,0,VALID,23.6994,VALID,243,VALID,0,
2010-04-20, 00:44:05,VALID,1000.63,VALID,0,VALID,92.5931,VALID,0,VALID,23.6817,VALID,243,VALID,0,
2010-04-20, 00:45:05,VALID,1000.59,VALID,0,VALID,92.6388,VALID,0,VALID,23.6409,VALID,243,VALID,0,
2010-04-20, 00:46:05,VALID,1000.6,VALID,0,VALID,92.7914,VALID,0,VALID,23.6622,VALID,100,VALID,0,
2010-04-20, 00:47:05,VALID,1000.6,VALID,0,VALID,92.8983,VALID,0,VALID,23.7012,VALID,84,VALID,0,
2010-04-20, 00:48:05,VALID,1000.59,VALID,0,VALID,92.738,VALID,0,VALID,23.7207,VALID,75,VALID,0.605859,
2010-04-20, 00:49:05,VALID,1000.55,VALID,0,VALID,92.6465,VALID,0,VALID,23.6817,VALID,75,VALID,0.991016,
2010-04-20, 00:50:05,VALID,1000.55,VALID,0,VALID,92.6923,VALID,0,VALID,23.7012,VALID,75,VALID,0.717188,
2010-04-20, 00:51:05,VALID,1000.54,VALID,0,VALID,92.532,VALID,0,VALID,23.6799,VALID,75,VALID,0.510156,
2010-04-20, 00:52:05,VALID,1000.52,VALID,0,VALID,92.4252,VALID,0,VALID,23.6604,VALID,75,VALID,0.635938,
2010-04-20, 00:53:05,VALID,1000.53,VALID,0,VALID,92.3642,VALID,0,VALID,23.6409,VALID,75,VALID,0.658984,
2010-04-20, 00:54:05,VALID,1000.54,VALID,0,VALID,92.4023,VALID,0,VALID,23.6817,VALID,57,VALID,0.882813,
2010-04-20, 00:55:05,VALID,1000.52,VALID,0,VALID,92.4557,VALID,0,VALID,23.6604,VALID,53,VALID,1.0375,
2010-04-20, 00:56:05,VALID,1000.52,VALID,0,VALID,92.3184,VALID,0,VALID,23.6799,VALID,53,VALID,1.06953,
2010-04-20, 00:57:05,VALID,1000.53,VALID,0,VALID,92.1353,VALID,0,VALID,23.6604,VALID,53,VALID,0.806641,
2010-04-20, 00:58:05,VALID,1000.5,VALID,0,VALID,92.0056,VALID,0.112286,VALID,23.6214,VALID,53,VALID,0,
2010-04-20, 00:59:05,VALID,1000.52,VALID,0,VALID,91.9445,VALID,0,VALID,23.5823,VALID,53,VALID,0,
2010-04-20, 01:00:05,VALID,1000.49,VALID,0,VALID,91.9293,VALID,0,VALID,23.5628,VALID,53,VALID,0,
2010-04-20, 01:01:05,VALID,1000.47,VALID,0,VALID,91.9445,VALID,0,VALID,23.5433,VALID,53,VALID,0,
2010-04-20, 01:02:05,VALID,1000.45,VALID,0,VALID,92.0514,VALID,0,VALID,23.5451,VALID,53,VALID,0,
2010-04-20, 01:03:05,VALID,1000.45,VALID,0,VALID,92.1429,VALID,0,VALID,23.5256,VALID,53,VALID,0,
2010-04-20, 01:04:05,VALID,1000.43,VALID,0,VALID,92.3031,VALID,0,VALID,23.5469,VALID,53,VALID,0,
2010-04-20, 01:05:05,VALID,1000.4,VALID,0,VALID,92.3031,VALID,0,VALID,23.5256,VALID,53,VALID,0,
2010-04-20, 01:06:05,VALID,1000.4,VALID,0,VALID,92.4939,VALID,0,VALID,23.5451,VALID,69,VALID,0,
2010-04-20, 01:07:05,VALID,1000.35,VALID,0,VALID,92.6388,VALID,0,VALID,23.5841,VALID,107,VALID,0.800391,
2010-04-20, 01:08:05,VALID,1000.36,VALID,0,VALID,92.532,VALID,0,VALID,23.6036,VALID,121,VALID,0.931641,
2010-04-20, 01:09:05,VALID,1000.31,VALID,0,VALID,92.5015,VALID,0,VALID,23.625,VALID,128,VALID,0.892187,
2010-04-20, 01:10:05,VALID,1000.31,VALID,0,VALID,92.4863,VALID,0,VALID,23.625,VALID,128,VALID,0.978516,
2010-04-20, 01:11:05,VALID,1000.31,VALID,0,VALID,92.4252,VALID,0,VALID,23.625,VALID,128,VALID,0.882031,
2010-04-20, 01:12:05,VALID,1000.29,VALID,0,VALID,92.3718,VALID,0,VALID,23.6036,VALID,128,VALID,0.888672,
2010-04-20, 01:13:05,VALID,1000.3,VALID,0,VALID,92.3413,VALID,0,VALID,23.6054,VALID,128,VALID,0.757813,
2010-04-20, 01:14:05,VALID,1000.27,VALID,0,VALID,92.3031,VALID,0,VALID,23.5859,VALID,123,VALID,0.671484,
2010-04-20, 01:15:05,VALID,1000.25,VALID,0,VALID,92.2879,VALID,0,VALID,23.5664,VALID,120,VALID,0.554688,
2010-04-20, 01:16:05,VALID,1000.23,VALID,0,VALID,92.3184,VALID,0,VALID,23.5256,VALID,120,VALID,0.3625,
2010-04-20, 01:17:05,VALID,1000.24,VALID,0,VALID,92.2726,VALID,0,VALID,23.5274,VALID,120,VALID,0.00195313,
2010-04-20, 01:18:05,VALID,1000.24,VALID,0,VALID,92.2726,VALID,0,VALID,23.5079,VALID,120,VALID,0,
2010-04-20, 01:19:05,VALID,1000.22,VALID,0,VALID,92.2955,VALID,0,VALID,23.4475,VALID,120,VALID,0,
2010-04-20, 01:20:05,VALID,1000.24,VALID,0,VALID,92.3108,VALID,0,VALID,23.4493,VALID,120,VALID,0,
2010-04-20, 01:21:05,VALID,1000.26,VALID,0,VALID,92.4023,VALID,0,VALID,23.428,VALID,120,VALID,0,
2010-04-20, 01:22:05,VALID,1000.25,VALID,0,VALID,92.5626,VALID,0,VALID,23.428,VALID,120,VALID,0.580859,
2010-04-20, 01:23:05,VALID,1000.26,VALID,0,VALID,92.7457,VALID,0,VALID,23.4475,VALID,101,VALID,0.758203,
2010-04-20, 01:24:05,VALID,1000.25,VALID,0,VALID,92.6846,VALID,0,VALID,23.4688,VALID,92,VALID,1.02539,
2010-04-20, 01:25:05,VALID,1000.24,VALID,0,VALID,92.5778,VALID,0,VALID,23.4475,VALID,95,VALID,0.875,
2010-04-20, 01:26:05,VALID,1000.25,VALID,0,VALID,92.6312,VALID,0,VALID,23.4493,VALID,97,VALID,0.791016,
2010-04-20, 01:27:05,VALID,1000.24,VALID,0,VALID,92.677,VALID,0,VALID,23.428,VALID,98,VALID,0.616016,
2010-04-20, 01:28:05,VALID,1000.24,VALID,0,VALID,92.6312,VALID,0,VALID,23.4493,VALID,98,VALID,0.625781,
2010-04-20, 01:29:05,VALID,1000.21,VALID,0,VALID,92.5549,VALID,0,VALID,23.4085,VALID,98,VALID,0.698047,
2010-04-20, 01:30:05,VALID,1000.17,VALID,0,VALID,92.5549,VALID,0,VALID,23.389,VALID,98,VALID,0.80625,
2010-04-20, 01:31:05,VALID,1000.15,VALID,0,VALID,92.5397,VALID,0,VALID,23.3695,VALID,98,VALID,0.697266,
2010-04-20, 01:32:05,VALID,1000.17,VALID,0,VALID,92.6617,VALID,0,VALID,23.389,VALID,83,VALID,0.764063,
2010-04-20, 01:33:05,VALID,1000.11,VALID,0,VALID,92.5473,VALID,0,VALID,23.4103,VALID,68,VALID,0.778516,
2010-04-20, 01:34:05,VALID,1000.16,VALID,0,VALID,92.4786,VALID,0,VALID,23.35,VALID,66,VALID,0.429297,
2010-04-20, 01:35:05,VALID,1000.13,VALID,0,VALID,92.4405,VALID,0,VALID,23.311,VALID,51,VALID,0,
2010-04-20, 01:36:05,VALID,1000.09,VALID,0,VALID,92.4176,VALID,0,VALID,23.2915,VALID,51,VALID,0,
2010-04-20, 01:37:05,VALID,1000.04,VALID,0,VALID,92.4252,VALID,0,VALID,23.2719,VALID,51,VALID,0,
2010-04-20, 01:38:05,VALID,1000.05,VALID,0,VALID,92.4328,VALID,0,VALID,23.2737,VALID,51,VALID,0,
2010-04-20, 01:39:05,VALID,1000.07,VALID,0,VALID,92.4328,VALID,0,VALID,23.2134,VALID,51,VALID,0,
2010-04-20, 01:40:05,VALID,1000.06,VALID,0,VALID,92.4786,VALID,0,VALID,23.2152,VALID,7,VALID,0,
2010-04-20, 01:41:05,VALID,1000.06,VALID,0,VALID,92.5854,VALID,0,VALID,23.1939,VALID,351,VALID,0,
2010-04-20, 01:42:05,VALID,1000.03,VALID,0,VALID,92.616,VALID,0,VALID,23.1939,VALID,340,VALID,0,
2010-04-20, 01:43:05,VALID,1000.06,VALID,0,VALID,92.6312,VALID,0,VALID,23.1744,VALID,340,VALID,0,
2010-04-20, 01:44:05,VALID,1000.03,VALID,0,VALID,92.7151,VALID,0,VALID,23.1744,VALID,340,VALID,0,
2010-04-20, 01:45:05,VALID,1000.02,VALID,0,VALID,92.7685,VALID,0,VALID,23.1744,VALID,340,VALID,0,
2010-04-20, 01:46:05,VALID,999.971,VALID,0,VALID,92.8372,VALID,0,VALID,23.1744,VALID,340,VALID,0.533984,
2010-04-20, 01:47:05,VALID,999.977,VALID,0,VALID,92.8143,VALID,0,VALID,23.1957,VALID,12,VALID,0.756641,
2010-04-20, 01:48:05,VALID,999.946,VALID,0,VALID,92.822,VALID,0,VALID,23.1762,VALID,19,VALID,0.980078,
2010-04-20, 01:49:05,VALID,999.916,VALID,0,VALID,92.8601,VALID,0,VALID,23.1744,VALID,15,VALID,1.15078,
2010-04-20, 01:50:05,VALID,999.9,VALID,0,VALID,92.7991,VALID,0,VALID,23.1549,VALID,14,VALID,0.942578,
2010-04-20, 01:51:05,VALID,999.907,VALID,0,VALID,92.6999,VALID,0,VALID,23.1159,VALID,14,VALID,0.826563,
2010-04-20, 01:52:05,VALID,999.944,VALID,0,VALID,92.7075,VALID,0,VALID,23.1176,VALID,14,VALID,0.951563,
2010-04-20, 01:53:05,VALID,999.92,VALID,0,VALID,92.7457,VALID,0,VALID,23.0964,VALID,14,VALID,1.04375,
2010-04-20, 01:54:05,VALID,999.943,VALID,0,VALID,92.7762,VALID,0,VALID,23.0769,VALID,12,VALID,1.1125,
2010-04-20, 01:55:05,VALID,999.928,VALID,0,VALID,92.8143,VALID,0,VALID,23.1159,VALID,12,VALID,1.125,
2010-04-20, 01:56:05,VALID,999.931,VALID,0,VALID,92.8601,VALID,0,VALID,23.0964,VALID,11,VALID,0.969531,
2010-04-20, 01:57:05,VALID,999.951,VALID,0,VALID,92.8754,VALID,0,VALID,23.0964,VALID,9,VALID,1.05781,
2010-04-20, 01:58:05,VALID,999.934,VALID,0,VALID,92.8906,VALID,0,VALID,23.0964,VALID,11,VALID,1.01992,
2010-04-20, 01:59:05,VALID,999.907,VALID,0,VALID,92.9288,VALID,0,VALID,23.1159,VALID,12,VALID,0.877344,
2010-04-20, 02:00:05,VALID,999.931,VALID,0,VALID,92.9517,VALID,0,VALID,23.1159,VALID,12,VALID,0.728906,
2010-04-20, 02:01:05,VALID,999.92,VALID,0,VALID,92.9364,VALID,0,VALID,23.1159,VALID,12,VALID,0.595703,
2010-04-20, 02:02:05,VALID,999.914,VALID,0,VALID,92.9593,VALID,0,VALID,23.0946,VALID,12,VALID,0.641016,
2010-04-20, 02:03:04,VALID,999.944,VALID,0,VALID,92.9745,VALID,0,VALID,23.1159,VALID,12,VALID,0.847266,
2010-04-20, 02:04:04,VALID,999.938,VALID,0,VALID,93.0356,VALID,0,VALID,23.1336,VALID,17,VALID,0.875,
2010-04-20, 02:05:04,VALID,999.959,VALID,0,VALID,93.0966,VALID,0,VALID,23.1549,VALID,22,VALID,0.649219,
2010-04-20, 02:06:04,VALID,999.942,VALID,0,VALID,93.0814,VALID,0,VALID,23.1531,VALID,22,VALID,0.337891,
2010-04-20, 02:07:04,VALID,999.98,VALID,0,VALID,93.1424,VALID,0,VALID,23.1531,VALID,22,VALID,0.262891,
2010-04-20, 02:08:04,VALID,999.978,VALID,0,VALID,93.0814,VALID,0,VALID,23.1939,VALID,22,VALID,0,
2010-04-20, 02:09:04,VALID,1000.01,VALID,0,VALID,93.1119,VALID,0,VALID,23.1744,VALID,22,VALID,0,
2010-04-20, 02:10:04,VALID,1000.02,VALID,0,VALID,93.1271,VALID,0.112286,VALID,23.1726,VALID,22,VALID,0,
2010-04-20, 02:11:04,VALID,1000.02,VALID,0,VALID,93.0966,VALID,0,VALID,23.1531,VALID,22,VALID,0,
2010-04-20, 02:12:04,VALID,1000.06,VALID,0,VALID,93.0432,VALID,0,VALID,23.1336,VALID,22,VALID,0,
2010-04-20, 02:13:04,VALID,1000.07,VALID,0,VALID,93.028,VALID,0,VALID,23.0946,VALID,22,VALID,0,
2010-04-20, 02:14:04,VALID,1000.07,VALID,0,VALID,93.028,VALID,0,VALID,23.1159,VALID,22,VALID,0,
2010-04-20, 02:15:04,VALID,1000.07,VALID,0,VALID,93.0051,VALID,0,VALID,23.0751,VALID,22,VALID,0,
2010-04-20, 02:16:04,VALID,1000.09,VALID,0,VALID,92.9669,VALID,0.112286,VALID,23.0361,VALID,22,VALID,0,
2010-04-20, 02:17:04,VALID,1000.11,VALID,0,VALID,93.0051,VALID,0,VALID,23.0591,VALID,22,VALID,0,
2010-04-20, 02:18:04,VALID,1000.11,VALID,0,VALID,93.0661,VALID,0,VALID,23.0378,VALID,22,VALID,0,
2010-04-20, 02:19:04,VALID,1000.11,VALID,0,VALID,93.15,VALID,0,VALID,23.0591,VALID,22,VALID,0,
2010-04-20, 02:20:04,VALID,1000.12,VALID,0,VALID,93.1882,VALID,0,VALID,23.0769,VALID,22,VALID,0,
2010-04-20, 02:21:04,VALID,1000.08,VALID,0,VALID,93.2034,VALID,0,VALID,23.0769,VALID,22,VALID,0,
2010-04-20, 02:22:04,VALID,1000.11,VALID,0,VALID,93.2874,VALID,0,VALID,23.0964,VALID,41,VALID,0.292188,
2010-04-20, 02:23:04,VALID,1000.06,VALID,0,VALID,93.2263,VALID,0,VALID,23.0964,VALID,41,VALID,0,
2010-04-20, 02:24:04,VALID,1000.06,VALID,0,VALID,93.2187,VALID,0,VALID,23.0769,VALID,41,VALID,0,
2010-04-20, 02:25:04,VALID,1000.05,VALID,0,VALID,93.2568,VALID,0,VALID,23.0981,VALID,41,VALID,0,
2010-04-20, 02:26:04,VALID,1000.05,VALID,0,VALID,93.3179,VALID,0,VALID,23.1176,VALID,41,VALID,0,
2010-04-20, 02:27:04,VALID,1000.05,VALID,0,VALID,93.4247,VALID,0,VALID,23.1354,VALID,41,VALID,0,
2010-04-20, 02:28:04,VALID,1000.06,VALID,0,VALID,93.4476,VALID,0,VALID,23.1957,VALID,41,VALID,0.457031,
2010-04-20, 02:29:04,VALID,1000.04,VALID,0,VALID,93.4247,VALID,0,VALID,23.1957,VALID,41,VALID,0.353516,
2010-04-20, 02:30:04,VALID,1000.01,VALID,0,VALID,93.4476,VALID,0,VALID,23.2134,VALID,41,VALID,0,
2010-04-20, 02:31:04,VALID,999.998,VALID,0,VALID,93.4781,VALID,0,VALID,23.2542,VALID,41,VALID,0,
2010-04-20, 02:32:04,VALID,1000,VALID,0,VALID,93.4552,VALID,0.112286,VALID,23.2507,VALID,41,VALID,0,
2010-04-20, 02:33:04,VALID,999.971,VALID,0,VALID,93.4857,VALID,0,VALID,23.2897,VALID,50,VALID,0,
2010-04-20, 02:34:04,VALID,999.955,VALID,0,VALID,93.3866,VALID,0,VALID,23.2702,VALID,62,VALID,0,
2010-04-20, 02:35:04,VALID,999.96,VALID,0,VALID,93.3103,VALID,0.112286,VALID,23.2507,VALID,62,VALID,0,
2010-04-20, 02:36:04,VALID,999.944,VALID,0,VALID,93.2721,VALID,0.112286,VALID,23.2507,VALID,62,VALID,0,
2010-04-20, 02:37:04,VALID,999.909,VALID,0,VALID,93.2645,VALID,0.112286,VALID,23.2702,VALID,62,VALID,0,
2010-04-20, 02:38:04,VALID,999.925,VALID,0,VALID,93.2416,VALID,0,VALID,23.2719,VALID,57,VALID,0,
2010-04-20, 02:39:04,VALID,999.906,VALID,0,VALID,93.1424,VALID,0,VALID,23.2312,VALID,56,VALID,0,
2010-04-20, 02:40:04,VALID,999.907,VALID,0,VALID,93.0432,VALID,0,VALID,23.1921,VALID,55,VALID,0,
2010-04-20, 02:41:04,VALID,999.9,VALID,0,VALID,92.9745,VALID,0,VALID,23.1531,VALID,53,VALID,0,
2010-04-20, 02:42:04,VALID,999.894,VALID,0,VALID,92.9288,VALID,0,VALID,23.1336,VALID,53,VALID,0,
2010-04-20, 02:43:04,VALID,999.866,VALID,0,VALID,92.9364,VALID,0.112286,VALID,23.1141,VALID,53,VALID,0,
2010-04-20, 02:44:04,VALID,999.855,VALID,0,VALID,92.9135,VALID,0,VALID,23.0946,VALID,53,VALID,0,
2010-04-20, 02:45:04,VALID,999.855,VALID,0,VALID,92.9669,VALID,0,VALID,23.0751,VALID,53,VALID,0,
2010-04-20, 02:46:04,VALID,999.858,VALID,0,VALID,92.9593,VALID,0,VALID,23.0556,VALID,53,VALID,0,
2010-04-20, 02:47:04,VALID,999.845,VALID,0,VALID,93.0051,VALID,0,VALID,23.0573,VALID,53,VALID,0,
2010-04-20, 02:48:04,VALID,999.848,VALID,0,VALID,93.0508,VALID,0,VALID,23.0786,VALID,59,VALID,0,
2010-04-20, 02:49:04,VALID,999.849,VALID,0,VALID,93.0814,VALID,0,VALID,23.0573,VALID,61,VALID,0,
2010-04-20, 02:50:04,VALID,999.852,VALID,0,VALID,93.1424,VALID,0,VALID,23.0573,VALID,61,VALID,0,
2010-04-20, 02:51:04,VALID,999.894,VALID,0,VALID,93.1882,VALID,0,VALID,23.0769,VALID,61,VALID,0,
2010-04-20, 02:52:04,VALID,999.88,VALID,0,VALID,93.1653,VALID,0,VALID,23.0573,VALID,61,VALID,0,
2010-04-20, 02:53:04,VALID,999.877,VALID,0,VALID,93.1729,VALID,0,VALID,23.0786,VALID,61,VALID,0,
2010-04-20, 02:54:04,VALID,999.882,VALID,0,VALID,93.1577,VALID,0,VALID,23.0378,VALID,61,VALID,0,
2010-04-20, 02:55:04,VALID,999.872,VALID,0,VALID,93.1348,VALID,0,VALID,23.0201,VALID,61,VALID,0,
2010-04-20, 02:56:04,VALID,999.887,VALID,0,VALID,93.1424,VALID,0,VALID,22.9988,VALID,61,VALID,0,
2010-04-20, 02:57:04,VALID,999.888,VALID,0,VALID,93.1348,VALID,0,VALID,22.9598,VALID,61,VALID,0,
2010-04-20, 02:58:04,VALID,999.878,VALID,0,VALID,93.1577,VALID,0,VALID,22.9598,VALID,61,VALID,0,
2010-04-20, 02:59:04,VALID,999.895,VALID,0,VALID,93.1577,VALID,0,VALID,22.9208,VALID,61,VALID,0,
2010-04-20, 03:00:04,VALID,999.871,VALID,0,VALID,93.15,VALID,0,VALID,22.9208,VALID,61,VALID,0,
2010-04-20, 03:01:04,VALID,999.859,VALID,0,VALID,93.1653,VALID,0,VALID,22.9013,VALID,61,VALID,0,
2010-04-20, 03:02:04,VALID,999.871,VALID,0,VALID,93.2034,VALID,0,VALID,22.9013,VALID,61,VALID,0,
2010-04-20, 03:03:04,VALID,999.865,VALID,0,VALID,93.295,VALID,0,VALID,22.9013,VALID,61,VALID,0,
2010-04-20, 03:04:04,VALID,999.873,VALID,0,VALID,93.3866,VALID,0,VALID,22.9403,VALID,61,VALID,0,
2010-04-20, 03:05:04,VALID,999.873,VALID,0,VALID,93.4323,VALID,0,VALID,22.9793,VALID,61,VALID,0,
2010-04-20, 03:06:04,VALID,999.863,VALID,0,VALID,93.44,VALID,0,VALID,23.0201,VALID,61,VALID,0,
2010-04-20, 03:07:04,VALID,999.82,VALID,0,VALID,93.3866,VALID,0,VALID,22.9793,VALID,61,VALID,0,
2010-04-20, 03:08:04,VALID,999.849,VALID,0,VALID,93.3713,VALID,0,VALID,22.9598,VALID,61,VALID,0,
2010-04-20, 03:09:04,VALID,999.842,VALID,0,VALID,93.3408,VALID,0,VALID,22.9403,VALID,61,VALID,0,
2010-04-20, 03:10:04,VALID,999.847,VALID,0,VALID,93.3637,VALID,0,VALID,22.9403,VALID,61,VALID,0,
2010-04-20, 03:11:04,VALID,999.847,VALID,0,VALID,93.4323,VALID,0,VALID,22.9598,VALID,61,VALID,0,
2010-04-20, 03:12:04,VALID,999.824,VALID,0,VALID,93.4552,VALID,0,VALID,23.0006,VALID,61,VALID,0,
2010-04-20, 03:13:04,VALID,999.828,VALID,0,VALID,93.4247,VALID,0,VALID,22.9811,VALID,61,VALID,0,
2010-04-20, 03:14:04,VALID,999.838,VALID,0,VALID,93.4857,VALID,0,VALID,22.9793,VALID,61,VALID,0,
2010-04-20, 03:15:04,VALID,999.837,VALID,0,VALID,93.4857,VALID,0,VALID,23.0006,VALID,61,VALID,0,
2010-04-20, 03:16:04,VALID,999.867,VALID,0,VALID,93.4857,VALID,0,VALID,22.9793,VALID,61,VALID,0,
2010-04-20, 03:17:04,VALID,999.845,VALID,0,VALID,93.5391,VALID,0,VALID,23.0201,VALID,61,VALID,0,
2010-04-20, 03:18:04,VALID,999.821,VALID,0,VALID,93.5315,VALID,0,VALID,23.0201,VALID,61,VALID,0,
2010-04-20, 03:19:04,VALID,999.847,VALID,0,VALID,93.501,VALID,0,VALID,22.9793,VALID,61,VALID,0,
2010-04-20, 03:20:04,VALID,999.814,VALID,0,VALID,93.5086,VALID,0,VALID,23.0201,VALID,61,VALID,0,
2010-04-20, 03:21:04,VALID,999.794,VALID,0,VALID,93.4628,VALID,0,VALID,22.9598,VALID,61,VALID,0,
2010-04-20, 03:22:04,VALID,999.806,VALID,0,VALID,93.4552,VALID,0,VALID,22.9615,VALID,61,VALID,0,
2010-04-20, 03:23:04,VALID,999.731,VALID,0,VALID,93.501,VALID,0,VALID,22.9793,VALID,61,VALID,0,
2010-04-20, 03:24:04,VALID,999.788,VALID,0,VALID,93.501,VALID,0,VALID,22.9793,VALID,61,VALID,0,
2010-04-20, 03:25:04,VALID,999.765,VALID,0,VALID,93.501,VALID,0,VALID,22.9988,VALID,61,VALID,0,
2010-04-20, 03:26:04,VALID,999.78,VALID,0,VALID,93.5391,VALID,0,VALID,22.9988,VALID,61,VALID,0,
2010-04-20, 03:27:04,VALID,999.794,VALID,0,VALID,93.5849,VALID,0,VALID,23.0396,VALID,61,VALID,0,
2010-04-20, 03:28:04,VALID,999.794,VALID,0,VALID,93.6002,VALID,0,VALID,23.0378,VALID,61,VALID,0,
2010-04-20, 03:29:04,VALID,999.794,VALID,0,VALID,93.5468,VALID,0,VALID,23.0183,VALID,61,VALID,0,
2010-04-20, 03:30:04,VALID,999.77,VALID,0,VALID,93.5086,VALID,0,VALID,22.9811,VALID,61,VALID,0,
2010-04-20, 03:31:04,VALID,999.79,VALID,0,VALID,93.4857,VALID,0,VALID,22.9403,VALID,61,VALID,0,
2010-04-20, 03:32:04,VALID,999.773,VALID,0,VALID,93.5697,VALID,0,VALID,22.9013,VALID,61,VALID,0,
2010-04-20, 03:33:04,VALID,999.789,VALID,0,VALID,93.5849,VALID,0,VALID,22.9208,VALID,61,VALID,0,
2010-04-20, 03:34:04,VALID,999.769,VALID,0,VALID,93.6612,VALID,0,VALID,22.9403,VALID,61,VALID,0,
2010-04-20, 03:35:04,VALID,999.776,VALID,0,VALID,93.6688,VALID,0,VALID,22.9403,VALID,61,VALID,0,
2010-04-20, 03:36:04,VALID,999.721,VALID,0,VALID,93.7375,VALID,0,VALID,22.9793,VALID,62,VALID,0,
2010-04-20, 03:37:04,VALID,999.734,VALID,0,VALID,93.7985,VALID,0,VALID,23.0396,VALID,85,VALID,0,
2010-04-20, 03:38:04,VALID,999.724,VALID,0,VALID,93.8214,VALID,0,VALID,23.0786,VALID,88,VALID,0,
2010-04-20, 03:39:04,VALID,999.714,VALID,0,VALID,93.7757,VALID,0,VALID,23.0981,VALID,88,VALID,0,
2010-04-20, 03:40:04,VALID,999.698,VALID,0,VALID,93.7299,VALID,0,VALID,23.0769,VALID,88,VALID,0,
2010-04-20, 03:41:04,VALID,999.749,VALID,0,VALID,93.6994,VALID,0,VALID,23.0573,VALID,88,VALID,0,
2010-04-20, 03:42:04,VALID,999.756,VALID,0,VALID,93.7223,VALID,0,VALID,23.0591,VALID,88,VALID,0,
2010-04-20, 03:43:04,VALID,999.764,VALID,0,VALID,93.707,VALID,0,VALID,23.0591,VALID,88,VALID,0,
2010-04-20, 03:44:04,VALID,999.766,VALID,0,VALID,93.6765,VALID,0,VALID,23.0183,VALID,88,VALID,0,
2010-04-20, 03:45:04,VALID,999.787,VALID,0,VALID,93.646,VALID,0,VALID,22.9988,VALID,88,VALID,0,
2010-04-20, 03:46:04,VALID,999.773,VALID,0,VALID,93.6078,VALID,0,VALID,23.0006,VALID,88,VALID,0,
2010-04-20, 03:47:04,VALID,999.8,VALID,0,VALID,93.5697,VALID,0,VALID,22.9615,VALID,88,VALID,0,
2010-04-20, 03:48:04,VALID,999.783,VALID,0,VALID,93.5544,VALID,0,VALID,22.9208,VALID,88,VALID,0,
2010-04-20, 03:49:04,VALID,999.773,VALID,0,VALID,93.5239,VALID,0,VALID,22.903,VALID,88,VALID,0,
2010-04-20, 03:50:04,VALID,999.788,VALID,0,VALID,93.4857,VALID,0,VALID,22.8427,VALID,88,VALID,0,
2010-04-20, 03:51:04,VALID,999.79,VALID,0,VALID,93.501,VALID,0,VALID,22.8232,VALID,88,VALID,0,
2010-04-20, 03:52:04,VALID,999.802,VALID,0,VALID,93.5849,VALID,0,VALID,22.864,VALID,88,VALID,0,
2010-04-20, 03:53:04,VALID,999.819,VALID,0,VALID,93.6231,VALID,0,VALID,22.8623,VALID,88,VALID,0,
2010-04-20, 03:54:04,VALID,999.786,VALID,0,VALID,93.6078,VALID,0,VALID,22.903,VALID,88,VALID,0,
2010-04-20, 03:55:04,VALID,999.804,VALID,0,VALID,93.6231,VALID,0,VALID,22.9225,VALID,88,VALID,0,
2010-04-20, 03:56:04,VALID,999.769,VALID,0,VALID,93.5697,VALID,0,VALID,22.903,VALID,88,VALID,0,
2010-04-20, 03:57:04,VALID,999.824,VALID,0,VALID,93.6002,VALID,0,VALID,22.8818,VALID,88,VALID,0,